When you browse on this site, cookies collect data to enhance your experience and personalize the content and advertising you see.
Visit our Privacy Policy to learn more. By continuing to use the site, you agree to this use of cookies and data.
  • In Portugal
  • List of Countries
  • For 7 days
  • Water Temperature
  • Satellite Maps
  • Weather Map
  • Weather Widgets
  • user-avatar
    Login

    Hourly Weather Osinka

    Today, 26 April, Friday

    Time Temperature Precipitation Wind Pressure Humidity
    00:00 +2°C° 0 mm 1 mps 756 mmHg 81%
    01:00 +2°C° 0 mm 1 mps 756 mmHg 82%
    02:00 +1°C° 0 mm 1 mps 756 mmHg 81%
    03:00 0°C° 0 mm 0 mps 756 mmHg 81%
    04:00 -1°C° 0 mm 0 mps 755 mmHg 84%
    05:00 +2°C° 0 mm 1 mps 755 mmHg 78%
    06:00 +3°C° 0 mm 1 mps 755 mmHg 73%
    07:00 +4°C° 0 mm 1 mps 755 mmHg 68%
    08:00 +4°C° 0.1 mm 2 mps 754 mmHg 64%
    09:00 +5°C° 0.1 mm 3 mps 754 mmHg 59%
    10:00 +7°C° 0.1 mm 3 mps 754 mmHg 54%
    11:00 +7°C° 0.3 mm 4 mps 753 mmHg 55%
    12:00 +7°C° 0.3 mm 4 mps 753 mmHg 55%
    13:00 +7°C° 0.3 mm 4 mps 753 mmHg 56%
    14:00 +8°C° 0.2 mm 5 mps 753 mmHg 54%
    15:00 +8°C° 0.2 mm 5 mps 753 mmHg 51%
    16:00 +8°C° 0.2 mm 5 mps 752 mmHg 49%
    17:00 +7°C° 0 mm 5 mps 753 mmHg 53%
    18:00 +6°C° 0 mm 4 mps 753 mmHg 57%
    19:00 +4°C° 0 mm 3 mps 753 mmHg 62%
    20:00 +3°C° 0 mm 3 mps 753 mmHg 66%
    21:00 +3°C° 0 mm 2 mps 753 mmHg 71%
    22:00 +2°C° 0 mm 2 mps 754 mmHg 76%
    23:00 +1°C° 0 mm 2 mps 754 mmHg 78%

    Tomorrow, 27 April, Saturday

    Time Temperature Precipitation Wind Pressure Humidity
    00:00 +1°C° 0 mm 1 mps 754 mmHg 80%
    01:00 +1°C° 0 mm 1 mps 754 mmHg 81%
    02:00 +1°C° 0 mm 1 mps 754 mmHg 81%
    03:00 +1°C° 0 mm 1 mps 754 mmHg 81%
    04:00 -1°C° 0 mm 0 mps 754 mmHg 80%
    05:00 +1°C° 0 mm 1 mps 754 mmHg 76%
    06:00 +2°C° 0 mm 1 mps 753 mmHg 72%
    07:00 +2°C° 0 mm 2 mps 753 mmHg 68%
    08:00 +2°C° 0 mm 3 mps 752 mmHg 64%
    09:00 +3°C° 0 mm 5 mps 752 mmHg 61%
    10:00 +5°C° 0 mm 6 mps 751 mmHg 57%
    11:00 +6°C° 0 mm 7 mps 750 mmHg 55%
    12:00 +8°C° 0 mm 7 mps 749 mmHg 52%
    13:00 +10°C° 0 mm 7 mps 748 mmHg 50%
    14:00 +10°C° 0 mm 7 mps 747 mmHg 50%
    15:00 +10°C° 0 mm 7 mps 747 mmHg 50%
    16:00 +11°C° 0 mm 6 mps 746 mmHg 50%
    17:00 +10°C° 0.1 mm 5 mps 745 mmHg 54%
    18:00 +10°C° 0.1 mm 5 mps 745 mmHg 57%
    19:00 +10°C° 0.1 mm 4 mps 745 mmHg 60%
    20:00 +9°C° 0.1 mm 3 mps 744 mmHg 67%
    21:00 +8°C° 0.1 mm 3 mps 744 mmHg 74%
    22:00 +7°C° 0.1 mm 3 mps 744 mmHg 81%
    23:00 +6°C° 1.1 mm 2 mps 744 mmHg 85%

    Day after tomorrow, 28 April, Sunday

    Time Temperature Precipitation Wind Pressure Humidity
    00:00 +6°C° 1.1 mm 2 mps 744 mmHg 89%
    01:00 +5°C° 1.1 mm 2 mps 744 mmHg 93%
    02:00 +3°C° 1.2 mm 3 mps 743 mmHg 93%
    03:00 +1°C° 1.2 mm 3 mps 743 mmHg 92%
    04:00 -1°C° 1.2 mm 4 mps 743 mmHg 91%
    05:00 -1°C° 0.9 mm 4 mps 743 mmHg 92%
    06:00 -1°C° 0.9 mm 4 mps 743 mmHg 92%
    07:00 -2°C° 0.9 mm 4 mps 743 mmHg 92%
    08:00 -1°C° 0.3 mm 4 mps 744 mmHg 90%
    09:00 -1°C° 0.3 mm 4 mps 744 mmHg 87%
    10:00 0°C° 0.3 mm 5 mps 745 mmHg 85%
    11:00 +1°C° 0.1 mm 5 mps 745 mmHg 82%
    12:00 +1°C° 0.1 mm 5 mps 746 mmHg 80%
    13:00 +2°C° 0.1 mm 6 mps 746 mmHg 77%
    14:00 +2°C° 0.2 mm 5 mps 747 mmHg 73%
    15:00 +3°C° 0.2 mm 5 mps 747 mmHg 70%
    16:00 +3°C° 0.2 mm 5 mps 748 mmHg 67%
    17:00 +2°C° 0.2 mm 5 mps 748 mmHg 69%
    18:00 +1°C° 0.2 mm 4 mps 748 mmHg 72%
    19:00 +1°C° 0.2 mm 4 mps 749 mmHg 74%
    20:00 0°C° 0 mm 4 mps 749 mmHg 78%
    21:00 0°C° 0 mm 3 mps 750 mmHg 82%
    22:00 -1°C° 0 mm 3 mps 751 mmHg 85%
    23:00 -2°C° 0 mm 3 mps 751 mmHg 87%

    29 April, Monday

    Time Temperature Precipitation Wind Pressure Humidity
    00:00 -2°C° 0 mm 3 mps 751 mmHg 89%
    01:00 -2°C° 0 mm 3 mps 751 mmHg 90%
    02:00 -4°C° 0 mm 3 mps 752 mmHg 91%
    03:00 -4°C° 0 mm 3 mps 752 mmHg 92%
    04:00 -5°C° 0 mm 3 mps 752 mmHg 93%
    05:00 -4°C° 0 mm 3 mps 753 mmHg 89%
    06:00 -4°C° 0 mm 3 mps 753 mmHg 86%
    07:00 -2°C° 0 mm 3 mps 753 mmHg 83%
    08:00 -1°C° 0.1 mm 3 mps 754 mmHg 79%
    09:00 -1°C° 0.1 mm 3 mps 754 mmHg 75%
    10:00 0°C° 0.1 mm 3 mps 754 mmHg 72%
    11:00 +1°C° 0.2 mm 3 mps 754 mmHg 67%
    12:00 0°C° 0.2 mm 4 mps 754 mmHg 63%
    13:00 +1°C° 0.2 mm 4 mps 754 mmHg 58%
    14:00 +1°C° 0.1 mm 4 mps 754 mmHg 56%
    15:00 +1°C° 0.1 mm 4 mps 755 mmHg 54%
    16:00 +1°C° 0.1 mm 4 mps 755 mmHg 52%
    17:00 0°C° 0 mm 4 mps 755 mmHg 56%
    18:00 0°C° 0 mm 3 mps 755 mmHg 60%
    19:00 +1°C° 0 mm 2 mps 755 mmHg 64%
    20:00 -2°C° 0 mm 2 mps 755 mmHg 69%
    21:00 -3°C° 0 mm 2 mps 755 mmHg 74%
    22:00 -4°C° 0 mm 2 mps 756 mmHg 78%
    23:00 -2°C° 0 mm 1 mps 756 mmHg 80%

    30 April, Tuesday

    Time Temperature Precipitation Wind Pressure Humidity
    00:00 -2°C° 0 mm 1 mps 756 mmHg 81%
    01:00 -3°C° 0 mm 1 mps 756 mmHg 83%
    02:00 -3°C° 0 mm 1 mps 756 mmHg 83%
    03:00 -3°C° 0 mm 1 mps 756 mmHg 83%
    04:00 -3°C° 0 mm 1 mps 756 mmHg 83%
    05:00 -2°C° 0 mm 1 mps 756 mmHg 78%
    06:00 -3°C° 0 mm 2 mps 756 mmHg 72%
    07:00 -2°C° 0 mm 2 mps 756 mmHg 67%
    08:00 -1°C° 0 mm 2 mps 755 mmHg 61%
    09:00 0°C° 0 mm 3 mps 755 mmHg 55%
    10:00 0°C° 0 mm 3 mps 755 mmHg 49%
    11:00 +1°C° 0 mm 3 mps 755 mmHg 48%
    12:00 +1°C° 0 mm 4 mps 755 mmHg 47%
    13:00 +1°C° 0 mm 4 mps 754 mmHg 46%
    14:00 +1°C° 0 mm 4 mps 754 mmHg 46%
    15:00 +3°C° 0 mm 4 mps 754 mmHg 46%
    16:00 +3°C° 0 mm 4 mps 753 mmHg 46%
    17:00 +2°C° 0 mm 3 mps 753 mmHg 51%
    18:00 +2°C° 0 mm 3 mps 753 mmHg 55%
    19:00 +2°C° 0 mm 3 mps 753 mmHg 60%
    20:00 +1°C° 0 mm 3 mps 752 mmHg 62%
    21:00 0°C° 0 mm 3 mps 752 mmHg 65%
    22:00 -1°C° 0 mm 3 mps 752 mmHg 68%
    23:00 -1°C° 0 mm 3 mps 752 mmHg 68%

    1 May, Wednesday

    Time Temperature Precipitation Wind Pressure Humidity
    00:00 -2°C° 0 mm 4 mps 751 mmHg 67%
    01:00 -2°C° 0 mm 4 mps 751 mmHg 67%
    02:00 -2°C° 0.1 mm 4 mps 751 mmHg 69%
    03:00 -1°C° 0.1 mm 4 mps 751 mmHg 71%
    04:00 -1°C° 0.1 mm 4 mps 751 mmHg 74%
    05:00 -1°C° 0 mm 4 mps 751 mmHg 74%
    06:00 0°C° 0 mm 4 mps 751 mmHg 74%
    07:00 0°C° 0 mm 4 mps 751 mmHg 74%
    08:00 +1°C° 0 mm 4 mps 751 mmHg 68%
    09:00 +3°C° 0 mm 4 mps 751 mmHg 62%
    10:00 +4°C° 0 mm 4 mps 752 mmHg 56%
    11:00 +5°C° 0 mm 4 mps 752 mmHg 54%
    12:00 +5°C° 0 mm 4 mps 752 mmHg 52%
    13:00 +6°C° 0 mm 4 mps 752 mmHg 50%
    14:00 +6°C° 0 mm 4 mps 752 mmHg 50%
    15:00 +6°C° 0 mm 4 mps 752 mmHg 49%
    16:00 +7°C° 0 mm 4 mps 752 mmHg 49%
    17:00 +7°C° 0 mm 3 mps 752 mmHg 54%
    18:00 +6°C° 0 mm 2 mps 752 mmHg 59%
    19:00 +7°C° 0 mm 1 mps 752 mmHg 64%
    20:00 +6°C° 0 mm 1 mps 752 mmHg 68%
    21:00 +5°C° 0 mm 1 mps 752 mmHg 72%
    22:00 +4°C° 0 mm 1 mps 752 mmHg 76%
    23:00 +3°C° 0 mm 1 mps 752 mmHg 79%
    Show more